Regional Weather Roundup
Issued by NWS

Home | Current Version | Previous Version | Text Only | Print | Product List | Glossary On
Versions: 1 2 3 4 5 6 7 8 9 10 11 12 13 14 15 16 17 18 19 20 21 22 23 24 25 26 27 28 29 30 31 32 33 34 35 36 37 38 39 40 41 42 43 44 45 46 47 48 49 50
000
ASUS43 KMPX 230710
RWRMN
WEATHER ROUNDUP FOR MINNESOTA
NATIONAL WEATHER SERVICE TWIN CITIES/CHANHASSEN MN
200 AM CDT TUE MAY 23 2017


NOTE: "FAIR" INDICATES FEW OR NO CLOUDS BELOW 12,000 FEET WITH NO
SIGNIFICANT WEATHER AND/OR OBSTRUCTIONS TO VISIBILITY. N/A MEANS
CURRENT SKY AND/OR WEATHER CONDITIONS ARE NOT AVAILABLE.

MNZ060>063-068>070-230800-
   Twin Cities Metro

CITY           SKY/WX    TMP DP  RH WIND       PRES   REMARKS
TWIN CITIES    CLOUDY    53  47  79 S3        29.82F
ST PAUL        LGT RAIN  51  49  92 CALM      29.83S
CRYSTAL        MOCLDY    51  40  65 NW5       29.81F
BLAINE         MOCLDY    52  45  76 N5        29.81F
LAKEVILLE      CLOUDY    48  48 100 CALM      29.82F
EDEN PRAIRIE   CLOUDY    54  43  66 CALM      29.81F
SOUTH ST PAUL  LGT RAIN  51  49  93 CALM      29.82F
LAKE ELMO      LGT RAIN  50  46  87 W3        29.83S
$$
MNZ001>005-007-008-013>017-022>024-027-028-230800-
   Northwest Minnesota

CITY           SKY/WX    TMP DP  RH WIND       PRES   REMARKS
BEMIDJI        DRIZZLE   45  45  99 N5        29.86S
HALLOCK        CLOUDY    48  45  87 N13       29.96S
ROSEAU         CLOUDY    48  43  81 N12       29.92S
WARROAD        CLOUDY    46  45  93 N15       29.92S
THIEF RVR FALL LGT RAIN  46  44  93 N12       29.92S
CROOKSTON      DRIZZLE   46  46 100 N12       29.93S
FOSSTON        CLOUDY    45  43  93 N10       29.89S
DETROIT LAKES  DRIZZLE   45  45 100 N10       29.88F
MOORHEAD       LGT RAIN  46  46 100 N12       29.91S
PARK RAPIDS    CLOUDY    46  42  86 NW6       29.85S
MAHNOMEN       CLOUDY    45  45  98 N7        29.88F
$$
MNZ006-009>011-018-025>026-230800-
   North Central Minnesota

CITY           SKY/WX    TMP DP  RH WIND       PRES   REMARKS
BAUDETTE       CLOUDY    47  45  93 N12       29.88S
FLAG ISLAND    CLOUDY    46  43  87 NE17G28   29.92S
INTL FALLS     CLOUDY    48  46  93 NE7       29.85R FOG
WASKISH        CLOUDY    46  45  93 N5        29.86S FOG
BIG FORK       CLOUDY    45  45 100 CALM      29.84F
LONGVILLE      CLOUDY    45  45 100 CALM      29.84S
GRAND RAPIDS   CLOUDY    42  42 100 CALM      29.85F
CRANE LAKE     CLEAR     36  36 100 CALM      29.86S
ORR            CLOUDY    45  43  93 CALM      29.82S
COOK           CLOUDY    43  43 100 CALM      29.84S
WALKER         CLOUDY    44  43  97 CALM      29.85S FOG
$$
MNZ012-019>021-037-230800-
   Northeast Minnesota

CITY           SKY/WX    TMP DP  RH WIND       PRES   REMARKS
DULUTH         CLOUDY    47  44  90 N5        29.81F
ELY            PTCLDY    37  37 100 CALM      29.83S
HIBBING        MOCLDY    36  36 100 CALM      29.83S FOG
EVELETH        PTCLDY    37  36  93 CALM      29.84S
DULUTH HARBOR  CLOUDY    48  45  87 CALM      29.83S
TWO HARBORS    CLOUDY    50  45  81 CALM      29.80F
SILVER BAY     CLOUDY    46  45  93 CALM      29.80F
GRAND MARAIS     N/A     48  44  86 NW8       29.81F
G MARAIS ARPRT PTCLDY    36  30  80 NW5       29.82S
$$
MNZ029>031-032-039>041-046>048-054>057-064-230800-
   West Central Minnesota

CITY           SKY/WX    TMP DP  RH WIND       PRES   REMARKS
FERGUS FALLS   CLOUDY    46  46 100 N10       29.87F
WHEATON        CLOUDY    48  45  87 NW9       29.91S
MORRIS         CLOUDY    46  46 100 NW10      29.87S
ALEXANDRIA     CLOUDY    46  44  93 N5        29.87F
ELBOW LAKE     CLOUDY    46  46  98 W8        29.87F
WADENA         DRIZZLE   45  43  93 NW7       29.85F
GLENWOOD       CLOUDY    45  45 100 NW5       29.87S
APPLETON       CLOUDY    48  45  87 NW6       29.87F
BENSON         LGT RAIN  48  45  87 N5        29.89S
ORTONVILLE     CLOUDY    48  45  87 NW9       29.88F
MADISON        LGT RAIN  52  52 100 NW9       29.88F
WILLMAR        LGT RAIN  48  45  87 N13       29.87F
$$
MNZ033>034-036-042>043-049>051-058-059-230800-
   Central Minnesota

CITY           SKY/WX    TMP DP  RH WIND       PRES   REMARKS
ST CLOUD       CLOUDY    46  44  93 NW7       29.83F
SAUK CENTRE    DRIZZLE   45  42  90 NW6       29.86S
PAYNESVILLE    LGT RAIN  47  44  89 NW5       29.85S
AITKIN         DRIZZLE   45  43  93 CALM      29.82F
PINE RIVER     DRIZZLE   45  45 100 CALM      29.88S
BRAINERD       CLOUDY    46  44  93 N3        29.84F
STAPLES        DRIZZLE   43  43 100 NW3       29.85F
LONG PRAIRIE   DRIZZLE   43  41  93 NW3       29.86S
LITTLE FALLS   RAIN      45  41  87 CALM      29.85S
LITCHFIELD     CLOUDY    52  45  76 NW7       29.84F
BUFFALO        MOCLDY    48  41  77 W3        29.84S
MAPLE LAKE     CLEAR     47  44  86 NW7       29.84S
HUTCHINSON     CLOUDY    51  46  83 W7        29.85S
$$
MNZ037-044-045-052-053-230800-
   East Central Minnesota

CITY           SKY/WX    TMP DP  RH WIND       PRES   REMARKS
PRINCETON      CLOUDY    41  39  93 CALM      29.83S FOG
MORA           MOCLDY    43  41  93 CALM      29.84S FOG
CAMBRIDGE      CLOUDY    45  41  87 CALM      29.81S
RUSH CITY      CLOUDY    45  43  95 CALM      29.82F
MOOSE LAKE     CLOUDY    45  43  93 N3        29.81F
HINCKLEY       FAIR      45  43  93 N3        29.82F
CLOQUET        CLOUDY    46  43  87 NW5       29.82F
MCGREGOR       CLOUDY    46  45  93 NW3       29.84S
$$
MNZ071>073-080-081-089-090-097-098-230800-
   Southwest Minnesota

CITY           SKY/WX    TMP DP  RH WIND       PRES   REMARKS
MONTEVIDEO     DRIZZLE   46  43  87 NW3       29.87F
CANBY          DRIZZLE   48  46  93 CALM      29.90F
MARSHALL       LGT RAIN  48  45  89 NW14      29.89S
REDWOOD FALLS  CLOUDY    50  42  74 NW10      29.86F
OLIVIA         CLOUDY    50  43  76 NW9       29.85F
PIPESTONE      DRIZZLE   46  39  76 NW10G17   29.90S
WINDOM         CLOUDY    50  46  87 W8        29.87F
WORTHINGTON    CLOUDY    48  46  93 NW7       29.88F
JACKSON        CLOUDY    48  46  93 CALM      29.87F
TRACY          CLOUDY    50  47  89 NW8       29.88F
SLAYTON        CLOUDY    47  43  85 NW10      29.89F
$$
MNZ065>067-074>077-082>085-091>093-230800-
   South Central Minnesota

CITY           SKY/WX    TMP DP  RH WIND       PRES   REMARKS
MANKATO        CLOUDY    51  49  92 W7        29.84F
NEW ULM        CLOUDY    50  45  81 NW6       29.85S
ST JAMES       CLOUDY    52  46  82 W10       29.86F
FAIRMONT       CLOUDY    51  48  89 NW9       29.86S
GLENCOE        CLOUDY    51  47  86 W3        29.83S
FARIBAULT      DRIZZLE   52  46  82 NW3       29.83S
OWATONNA       CLOUDY    52  45  76 CALM      29.82F
WASECA         CLOUDY    52  46  82 W8        29.85S
ALBERT LEA     CLOUDY    52  48  87 CALM      29.83S
$$
MNZ078>079-086>088-094>096-230800-
   Southeast Minnesota

CITY           SKY/WX    TMP DP  RH WIND       PRES   REMARKS
ROCHESTER      RAIN      51  50  96 N8        29.81F FOG
RED WING       RAIN      54  46  76 N5        29.80F
STANTON        CLOUDY    52  47  84 N5        29.81S
DODGE CENTER   CLOUDY    50  48  93 NW7       29.81F
WINONA         MOCLDY    54  52  94 NW3       29.79S
AUSTIN         CLOUDY    52  48  87 NW6       29.81F
PRESTON        CLOUDY    51  48  90 NW7       29.80F
$$
ABBREVIATIONS USED IN REMARKS
   TC - TEMPERATURES IN CELSIUS
  WCI - WIND CHILL INDEX
   HX - HEAT INDEX
  VSB - VISIBILITY
$$




USA.gov is the U.S. government's official web portal to all federal, state and local government web resources and services.